GW1364 Weather Reports


time (UTC)temp
F
wind
direction
speed
knots
gust
knots
rain 1hr
in
rain 24hr
in
rain mn
in
humidity
%
barometer
mb
20260510081310 46 119 0.9 1.7 0.00 0.00 0.00 86 1013.8
20260510080801 46 119 0.0 0.0 0.00 0.00 0.00 85 1013.8
20260510080256 46 85 0.9 0.9 0.00 0.00 0.00 82 1013.7
20260510075753 47 114 0.0 0.0 0.00 0.00 0.00 83 1013.7
20260510075251 48 100 0.0 0.0 0.00 0.00 0.00 81 1013.7
20260510074748 47 121 0.0 0.0 0.00 0.00 0.00 83 1013.4
20260510074244 46 108 0.0 0.0 0.00 0.00 0.00 84 1013.6
20260510073740 46 103 0.0 0.0 0.00 0.00 0.00 83 1013.6
20260510073236 46 100 0.0 0.9 0.00 0.00 0.00 83 1013.2
20260510072732 47 95 0.9 0.9 0.00 0.00 0.00 78 1013.4
20260510072229 48 104 0.0 0.0 0.00 0.00 0.00 79 1013.5
20260510071725 48 102 0.0 0.0 0.00 0.00 0.00 80 1013.4
20260510071222 47 105 0.0 0.0 0.00 0.00 0.00 79 1013.4
20260510070721 48 121 0.0 0.0 0.00 0.00 0.00 78 1013.5
20260510070217 49 111 0.0 0.0 0.00 0.00 0.00 78 1013.3
20260510065712 49 130 0.0 0.9 0.00 0.00 0.00 78 1013.2
20260510065209 49 114 0.0 0.0 0.00 0.00 0.00 78 1013.3
20260510064705 49 100 0.0 0.0 0.00 0.00 0.00 77 1013.4
20260510064203 49 109 0.0 0.0 0.00 0.00 0.00 76 1013.3
20260510063700 50 108 0.0 0.0 0.00 0.00 0.00 76 1013.2
20260510063156 50 115 0.0 0.0 0.00 0.00 0.00 75 1013.1
20260510062652 50 116 0.0 0.0 0.00 0.00 0.00 75 1013.1
20260510062148 50 118 0.0 0.0 0.00 0.00 0.00 75 1013.2
20260510061643 50 111 0.0 0.0 0.00 0.00 0.00 74 1013.1
20260510061141 50 104 0.0 0.0 0.00 0.00 0.00 74 1013.1
20260510060637 50 99 0.0 0.9 0.00 0.00 0.00 73 1013.1
20260510060134 51 82 0.9 0.9 0.00 0.00 0.00 72 1013.2
20260510055630 51 109 0.0 0.0 0.00 0.00 0.00 71 1013.2
20260510055129 52 112 0.0 0.0 0.00 0.00 0.00 69 1013.2
20260510054624 55 98 0.0 0.9 0.00 0.00 0.00 64 1013.2
20260510054119 56 88 0.9 0.9 0.00 0.00 0.00 63 1013.2
20260510053619 57 170 0.9 1.7 0.00 0.00 0.00 61 1013.1
20260510053115 55 211 3.5 3.5 0.00 0.00 0.00 65 1013.2
20260510052611 53 112 1.7 2.6 0.00 0.00 0.00 68 1013.3
20260510052108 51 124 0.9 0.9 0.00 0.00 0.00 73 1013.1
20260510051603 51 121 0.0 0.0 0.00 0.00 0.00 73 1013.1
20260510051100 51 124 0.0 0.0 0.00 0.00 0.00 72 1013.2
20260510050557 52 119 0.9 0.9 0.00 0.00 0.00 69 1013.2
20260510050054 54 117 0.0 0.9 0.00 0.00 0.00 66 1013.1
20260510045552 56 105 0.0 0.0 0.00 0.00 0.00 62 1013.2
20260510045047 58 180 1.7 1.7 0.00 0.00 0.00 60 1013.3
20260510044539 59 201 1.7 2.6 0.00 0.00 0.00 58 1013.3
20260510044037 58 133 0.0 0.9 0.00 0.00 0.00 58 1013.4
20260510043532 58 136 1.7 1.7 0.00 0.00 0.00 59 1013.4
20260510043027 56 124 0.9 0.9 0.00 0.00 0.00 61 1013.4
20260510042522 56 107 0.0 0.9 0.00 0.00 0.00 63 1013.5
20260510042021 55 122 0.9 0.9 0.00 0.00 0.00 63 1013.3
20260510041519 55 130 0.9 0.9 0.00 0.00 0.00 64 1013.3
20260510041017 53 171 0.9 0.9 0.00 0.00 0.00 67 1013.5
20260510040513 53 125 0.0 0.0 0.00 0.00 0.00 68 1013.5
20260510040009 54 130 0.0 0.0 0.00 0.00 0.00 68 1013.4
20260510035506 54 141 0.9 0.9 0.00 0.00 0.00 68 1013.4
20260510035004 54 127 0.0 0.0 0.00 0.00 0.00 68 1013.6
20260510034504 54 202 1.7 1.7 0.00 0.00 0.00 68 1013.5
20260510033959 54 160 0.9 1.7 0.00 0.00 0.00 68 1013.2
20260510033455 54 134 0.0 0.9 0.00 0.00 0.00 67 1013.2
20260510032953 54 136 0.9 1.7 0.00 0.00 0.00 68 1013.4
20260510032450 53 146 0.9 0.9 0.00 0.00 0.00 71 1013.5
20260510031945 53 118 0.0 0.0 0.00 0.00 0.00 71 1013.5
20260510031441 53 122 0.0 0.0 0.00 0.00 0.00 70 1013.3
20260510030936 54 120 0.0 0.0 0.00 0.00 0.00 68 1013.3
20260510030432 55 216 0.9 0.9 0.00 0.00 0.00 67 1013.4
20260510025930 55 273 1.7 1.7 0.00 0.00 0.00 67 1013.1
20260510025427 56 154 0.9 0.9 0.00 0.00 0.00 65 1013.1
20260510024925 56 138 0.0 0.9 0.00 0.00 0.00 65 1013.1
20260510024420 56 175 0.9 0.9 0.00 0.00 0.00 66 1013.2
20260510023917 56 124 0.0 0.9 0.00 0.00 0.00 66 1013.0
20260510023413 56 170 0.9 0.9 0.00 0.00 0.00 65 1012.8
20260510022910 54 122 0.0 0.0 0.00 0.00 0.00 71 1012.9
20260510022410 54 131 0.0 0.0 0.00 0.00 0.00 72 1012.8
20260510021908 55 106 0.0 0.0 0.00 0.00 0.00 70 1012.8
20260510021407 55 123 0.0 0.0 0.00 0.00 0.00 70 1012.6
20260510020903 55 111 0.0 0.0 0.00 0.00 0.00 71 1012.5
20260510020358 56 116 0.0 0.0 0.00 0.00 0.00 71 1012.3
20260510015854 56 137 0.0 0.9 0.00 0.00 0.00 70 1012.2
20260510015350 56 121 0.0 0.9 0.00 0.00 0.00 70 1012.1
20260510014846 56 105 0.0 0.0 0.00 0.00 0.00 71 1012.1
20260510014343 57 97 0.0 0.0 0.00 0.00 0.00 70 1012.0
20260510013839 59 101 0.0 0.9 0.00 0.00 0.00 65 1012.0
20260510013335 59 118 0.0 0.9 0.00 0.00 0.00 63 1011.8
20260510012829 59 118 0.0 0.0 0.00 0.00 0.00 63 1011.7
20260510012324 60 126 0.0 0.0 0.00 0.00 0.00 65 1011.6
20260510011819 62 137 0.9 0.9 0.00 0.00 0.00 61 1011.5
20260510011315 62 220 2.6 3.5 0.00 0.00 0.00 58 1011.3
20260510010811 62 150 1.7 2.6 0.00 0.00 0.00 60 1011.4
20260510010309 62 126 0.9 0.9 0.00 0.00 0.00 61 1011.4
20260510005805 62 215 1.7 2.6 0.00 0.00 0.00 61 1011.5
20260510005301 62 166 0.9 1.7 0.00 0.00 0.00 60 1011.3
20260510004759 63 149 0.9 0.9 0.00 0.00 0.00 59 1011.3
20260510004256 63 179 3.5 5.2 0.00 0.00 0.00 58 1011.0
20260510003754 63 209 3.5 5.2 0.00 0.00 0.00 57 1011.1
20260510003251 63 168 2.6 2.6 0.00 0.00 0.00 59 1010.8
20260510002749 64 191 1.7 1.7 0.00 0.00 0.00 59 1010.9
20260510002247 64 232 3.5 3.5 0.00 0.00 0.00 59 1010.9
20260510001743 64 117 0.9 0.9 0.00 0.00 0.00 59 1010.8
20260510001242 64 204 0.9 1.7 0.00 0.00 0.00 59 1010.7
20260510000737 65 127 1.7 1.7 0.00 0.00 0.00 58 1010.6
20260510000235 65 110 0.9 0.9 0.00 0.00 0.00 57 1010.4
20260509235732 66 190 1.7 1.7 0.00 0.00 0.00 57 1010.3
20260509235228 66 176 0.9 1.7 0.00 0.00 0.00 55 1010.3
20260509234724 67 206 3.5 3.5 0.00 0.00 0.00 53 1010.4
20260509234221 68 193 1.7 1.7 0.00 0.00 0.00 53 1010.1
20260509233720 68 153 0.9 0.9 0.00 0.00 0.00 52 1010.3
20260509233217 68 129 0.9 0.9 0.00 0.00 0.00 52 1010.1
20260509232713 68 125 0.9 0.9 0.00 0.00 0.00 52 1010.1
20260509232210 69 212 3.5 3.5 0.00 0.00 0.00 51 1010.3
20260509231706 69 170 2.6 2.6 0.00 0.00 0.00 51 1010.1
20260509231204 69 204 3.5 3.5 0.00 0.00 0.00 50 1009.9
20260509230701 69 198 3.5 3.5 0.00 0.00 0.00 50 1010.0
20260509230157 69 206 1.7 2.6 0.00 0.00 0.00 51 1010.2
20260509225653 69 238 2.6 2.6 0.00 0.00 0.00 49 1010.1
20260509225149 69 214 2.6 2.6 0.00 0.00 0.00 50 1010.1
20260509224645 69 222 4.3 5.2 0.00 0.00 0.00 49 1010.1
20260509224142 69 249 5.2 6.1 0.00 0.00 0.00 50 1010.2
20260509223639 68 210 2.6 2.6 0.00 0.00 0.00 51 1010.2
20260509223136 68 213 6.1 7.0 0.00 0.00 0.00 51 1010.2
20260509222633 68 213 5.2 7.0 0.00 0.00 0.00 50 1010.2
20260509222128 68 208 2.6 3.5 0.00 0.00 0.00 51 1010.4
20260509221624 69 187 2.6 2.6 0.00 0.00 0.00 51 1010.3
20260509221120 70 115 1.7 2.6 0.00 0.00 0.00 49 1010.1
20260509220616 71 222 3.5 6.1 0.00 0.00 0.00 48 1009.9
20260509220113 70 181 2.6 3.5 0.00 0.00 0.00 50 1010.1
20260509215609 70 192 1.7 2.6 0.00 0.00 0.00 50 1010.0
20260509215105 70 212 5.2 5.2 0.00 0.00 0.00 49 1009.9
20260509214602 69 189 5.2 6.1 0.00 0.00 0.00 51 1009.9
20260509214059 69 210 7.0 7.8 0.00 0.00 0.00 50 1010.0
20260509213555 69 160 1.7 1.7 0.00 0.00 0.00 52 1010.0
20260509213052 68 248 5.2 7.0 0.00 0.00 0.00 52 1010.1
20260509212549 67 190 2.6 2.6 0.00 0.00 0.00 52 1010.0
20260509212046 67 200 1.7 3.5 0.00 0.00 0.00 53 1010.0
20260509211542 67 192 5.2 6.1 0.00 0.00 0.00 52 1010.0
20260509211039 68 194 1.7 1.7 0.00 0.00 0.00 52 1009.9
20260509210536 68 222 4.3 5.2 0.00 0.00 0.00 50 1009.9
20260509210032 69 244 5.2 6.1 0.00 0.00 0.00 50 1010.0
20260509205531 69 237 4.3 6.1 0.00 0.00 0.00 51 1009.9
20260509205027 68 221 3.5 5.2 0.00 0.00 0.00 51 1009.8
20260509204524 67 215 5.2 7.0 0.00 0.00 0.00 51 1010.0
20260509204020 67 110 1.7 1.7 0.00 0.00 0.00 52 1009.8
20260509203516 68 216 4.3 5.2 0.00 0.00 0.00 51 1009.7
20260509203015 68 228 4.3 5.2 0.00 0.00 0.00 50 1009.7
20260509202509 69 206 7.8 9.6 0.00 0.00 0.00 49 1009.6
20260509202005 70 243 6.1 6.1 0.00 0.00 0.00 46 1009.4
20260509201500 71 237 5.2 7.8 0.00 0.00 0.00 47 1009.5
20260509200957 71 197 0.9 1.7 0.00 0.00 0.00 45 1009.6
20260509200452 70 250 3.5 5.2 0.00 0.00 0.00 47 1009.5
20260509195948 70 234 7.0 8.7 0.00 0.00 0.00 48 1009.6
20260509195445 70 234 7.8 7.8 0.00 0.00 0.00 46 1009.5
20260509194944 69 211 5.2 9.6 0.00 0.00 0.00 50 1009.5
20260509194440 69 233 4.3 5.2 0.00 0.00 0.00 49 1009.6
20260509193937 69 223 3.5 5.2 0.00 0.00 0.00 48 1009.6
20260509193436 69 224 8.7 11.3 0.00 0.00 0.00 47 1009.8
20260509192932 68 211 2.6 3.5 0.00 0.00 0.00 52 1010.0
20260509192429 68 222 2.6 2.6 0.00 0.00 0.00 48 1009.9
20260509191924 69 211 5.2 7.0 0.00 0.00 0.00 48 1010.1
20260509191420 68 234 7.8 8.7 0.00 0.00 0.00 49 1010.1
20260509190916 70 215 10.4 13.9 0.00 0.00 0.00 45 1009.8
20260509190413 69 220 4.3 5.2 0.00 0.00 0.00 48 1010.2
20260509185912 69 238 3.5 5.2 0.00 0.00 0.00 51 1010.3
20260509185408 68 227 5.2 6.1 0.00 0.00 0.00 54 1010.1
20260509184905 68 182 2.6 3.5 0.00 0.00 0.00 50 1010.4
20260509184402 68 213 6.1 7.0 0.00 0.00 0.00 53 1010.4
20260509183859 66 244 5.2 7.0 0.00 0.00 0.00 55 1010.6
20260509183353 65 236 3.5 3.5 0.00 0.00 0.00 57 1010.7
20260509182849 65 224 2.6 3.5 0.00 0.00 0.00 56 1010.7
20260509182347 65 232 5.2 6.1 0.00 0.00 0.00 55 1010.8
20260509181844 65 186 1.7 2.6 0.00 0.00 0.00 54 1010.9
20260509181341 65 207 2.6 5.2 0.00 0.00 0.00 54 1010.8
20260509180838 65 247 5.2 7.0 0.00 0.00 0.00 54 1010.8
20260509180334 65 229 5.2 7.0 0.00 0.00 0.00 53 1010.7
20260509175831 65 225 4.3 5.2 0.00 0.00 0.00 53 1011.0
20260509175327 66 161 1.7 1.7 0.00 0.00 0.00 51 1011.0
20260509174823 65 224 3.5 3.5 0.00 0.00 0.00 55 1010.9
20260509174319 65 218 2.6 2.6 0.00 0.00 0.00 54 1011.1
20260509173815 66 141 0.9 1.7 0.00 0.00 0.00 54 1010.8
20260509173311 67 276 4.3 5.2 0.00 0.00 0.00 53 1011.0
20260509172807 67 248 3.5 3.5 0.00 0.00 0.00 51 1011.2
20260509172306 66 286 7.8 9.6 0.00 0.00 0.00 55 1011.1
20260509171801 67 245 7.0 8.7 0.00 0.00 0.00 53 1011.1
20260509171256 65 230 3.5 3.5 0.00 0.00 0.00 57 1011.3
20260509170753 64 227 6.1 7.0 0.00 0.00 0.00 60 1011.3
20260509170249 64 264 4.3 5.2 0.00 0.00 0.00 55 1011.5
20260509165748 65 258 7.8 11.3 0.00 0.00 0.00 56 1011.5
20260509165243 65 214 6.1 8.7 0.00 0.00 0.00 57 1011.6
20260509164739 65 258 4.3 5.2 0.00 0.00 0.00 55 1011.6
20260509164235 66 210 4.3 5.2 0.00 0.00 0.00 55 1011.5
20260509163732 64 160 2.6 3.5 0.00 0.00 0.00 57 1011.4
20260509163228 64 162 2.6 3.5 0.00 0.00 0.00 59 1011.4
20260509162727 64 202 6.1 7.0 0.00 0.00 0.00 57 1011.1
20260509162221 64 181 1.7 5.2 0.00 0.00 0.00 59 1011.5
20260509161717 63 216 2.6 5.2 0.00 0.00 0.00 58 1011.5
20260509161215 62 206 5.2 6.1 0.00 0.00 0.00 61 1011.6
20260509160715 62 223 7.8 8.7 0.00 0.00 0.00 60 1011.8
20260509160211 62 187 7.0 7.8 0.00 0.00 0.00 62 1011.8
20260509155706 61 232 7.0 7.8 0.00 0.00 0.00 61 1011.6
20260509155203 61 231 5.2 6.1 0.00 0.00 0.00 62 1011.5
20260509154659 61 230 6.1 7.0 0.00 0.00 0.00 62 1011.5
20260509154156 62 198 3.5 3.5 0.00 0.00 0.00 61 1011.4
20260509153653 61 226 3.5 3.5 0.00 0.00 0.00 63 1011.6
20260509153150 60 183 7.0 7.8 0.00 0.00 0.00 63 1011.6
20260509152645 60 261 5.2 9.6 0.00 0.00 0.00 63 1011.7
20260509152143 61 224 7.8 7.8 0.00 0.00 0.00 61 1011.8
20260509151639 60 231 5.2 6.1 0.00 0.00 0.00 64 1011.8
20260509151137 60 225 4.3 5.2 0.00 0.00 0.00 63 1011.8
20260509150635 60 224 8.7 9.6 0.00 0.00 0.00 63 1011.5
20260509150133 60 224 3.5 5.2 0.00 0.00 0.00 64 1011.7
20260509145629 60 192 3.5 5.2 0.00 0.00 0.00 65 1011.8
20260509145124 61 125 2.6 3.5 0.00 0.00 0.00 63 1011.8
20260509144621 61 226 7.8 13.0 0.00 0.00 0.00 62 1011.9
20260509144118 60 236 6.1 8.7 0.00 0.00 0.00 65 1011.8
20260509143615 59 226 6.1 7.0 0.00 0.00 0.00 64 1011.7
20260509143113 59 228 7.0 7.8 0.00 0.00 0.00 63 1011.7
20260509142608 60 255 7.0 8.7 0.00 0.00 0.00 62 1011.6
20260509142104 60 210 7.8 9.6 0.00 0.00 0.00 62 1011.5
20260509141600 60 118 1.7 1.7 0.00 0.00 0.00 62 1011.5
20260509141057 59 218 5.2 7.8 0.00 0.00 0.00 64 1011.5
20260509140554 60 244 3.5 6.1 0.00 0.00 0.00 63 1011.5
20260509140052 60 252 6.1 7.8 0.00 0.00 0.00 64 1011.5
20260509135549 59 231 6.1 6.1 0.00 0.00 0.00 65 1011.9
20260509135047 58 215 4.3 5.2 0.00 0.00 0.00 65 1011.7
20260509134543 58 265 5.2 7.0 0.00 0.00 0.00 65 1012.0
20260509134041 58 222 2.6 2.6 0.00 0.00 0.00 66 1012.0
20260509133538 58 218 2.6 2.6 0.00 0.00 0.00 65 1012.2
20260509133036 58 206 5.2 6.1 0.00 0.00 0.00 65 1012.1
20260509132534 57 206 2.6 2.6 0.00 0.00 0.00 65 1012.1
20260509132032 57 249 3.5 3.5 0.00 0.00 0.00 65 1012.1
20260509131527 57 238 2.6 2.6 0.00 0.00 0.00 66 1012.2
20260509131024 57 236 2.6 2.6 0.00 0.00 0.00 64 1012.3
20260509130519 57 249 2.6 2.6 0.00 0.00 0.00 65 1012.2
20260509130017 56 214 3.5 3.5 0.00 0.00 0.00 65 1012.3
20260509125513 56 228 2.6 2.6 0.00 0.00 0.00 65 1012.5
20260509125009 56 215 2.6 3.5 0.00 0.00 0.00 66 1012.6
20260509124506 55 218 3.5 5.2 0.00 0.00 0.00 66 1012.6
20260509124004 55 228 4.3 5.2 0.00 0.00 0.00 65 1012.6
20260509123502 55 205 6.1 9.6 0.00 0.00 0.00 65 1012.8
20260509122957 55 179 5.2 7.0 0.00 0.00 0.00 65 1012.7
20260509122454 55 214 2.6 2.6 0.00 0.00 0.00 66 1012.8
20260509121951 55 237 4.3 5.2 0.00 0.00 0.00 65 1012.6
20260509121447 55 148 4.3 7.8 0.00 0.00 0.00 64 1012.8
20260509120945 55 222 5.2 7.8 0.00 0.00 0.00 65 1012.6
20260509120443 55 192 2.6 2.6 0.00 0.00 0.00 65 1012.8
20260509115941 55 223 5.2 6.1 0.00 0.00 0.00 64 1012.7
20260509115438 55 200 2.6 2.6 0.00 0.00 0.00 65 1012.7
20260509114935 55 233 2.6 3.5 0.00 0.00 0.00 64 1012.7
20260509114434 55 187 3.5 3.5 0.00 0.00 0.00 64 1012.6
20260509113933 55 220 1.7 1.7 0.00 0.00 0.00 64 1012.7
20260509113430 55 183 2.6 2.6 0.00 0.00 0.00 65 1012.6
20260509112927 55 207 3.5 3.5 0.00 0.00 0.00 65 1012.6
20260509112424 54 172 2.6 2.6 0.00 0.00 0.00 66 1012.6
20260509111921 54 218 1.7 2.6 0.00 0.00 0.00 66 1012.5
20260509111418 54 208 1.7 1.7 0.00 0.00 0.00 66 1012.3
20260509110916 53 195 0.9 1.7 0.00 0.00 0.00 68 1012.3
20260509110411 52 208 1.7 1.7 0.00 0.00 0.00 69 1012.6
20260509105910 52 127 0.0 0.0 0.00 0.00 0.00 68 1012.3
20260509105408 53 168 0.9 0.9 0.00 0.00 0.00 66 1012.2
20260509104904 54 234 2.6 2.6 0.00 0.00 0.00 64 1012.2
20260509104401 54 202 1.7 1.7 0.00 0.00 0.00 64 1012.0
20260509103859 54 223 5.2 6.1 0.00 0.00 0.00 64 1012.3
20260509103355 54 129 0.0 0.9 0.00 0.00 0.00 64 1011.9
20260509102854 53 119 0.0 0.9 0.00 0.00 0.00 65 1012.1
20260509102351 53 203 2.6 2.6 0.00 0.00 0.00 65 1012.1
20260509101847 52 149 1.7 1.7 0.00 0.00 0.00 66 1012.2
20260509101343 52 127 0.0 0.9 0.00 0.00 0.00 66 1012.3
20260509100841 51 120 0.0 0.9 0.00 0.00 0.00 67 1012.2
20260509100338 52 203 1.7 1.7 0.00 0.00 0.00 65 1012.1
20260509095835 52 193 0.9 1.7 0.00 0.00 0.00 65 1012.3
20260509095332 51 136 0.9 1.7 0.00 0.00 0.00 68 1012.1
20260509094829 50 128 0.0 0.9 0.00 0.00 0.00 70 1012.3
20260509094326 50 160 0.9 0.9 0.00 0.00 0.00 69 1012.5
20260509093823 51 164 0.9 0.9 0.00 0.00 0.00 67 1012.5
20260509093320 52 151 0.9 1.7 0.00 0.00 0.00 66 1012.5
20260509092819 52 161 0.9 1.7 0.00 0.00 0.00 65 1012.0
20260509092316 53 196 1.7 2.6 0.00 0.00 0.00 62 1012.3
20260509091814 53 185 3.5 3.5 0.00 0.00 0.00 62 1012.2
20260509091311 53 115 0.0 0.9 0.00 0.00 0.00 61 1012.5
20260509090808 53 160 0.9 0.9 0.00 0.00 0.00 61 1012.2
20260509090305 53 201 3.5 5.2 0.00 0.00 0.00 60 1012.6
20260509085803 54 206 0.9 1.7 0.00 0.00 0.00 60 1012.7
20260509085300 54 120 0.0 0.9 0.00 0.00 0.00 59 1012.5
20260509084756 54 147 0.9 0.9 0.00 0.00 0.00 59 1012.5
20260509084253 54 130 2.6 3.5 0.00 0.00 0.00 58 1012.6
20260509083751 54 188 1.7 1.7 0.00 0.00 0.00 57 1012.5
20260509083247 54 228 4.3 5.2 0.00 0.00 0.00 57 1012.7
20260509082744 54 216 1.7 2.6 0.00 0.00 0.00 56 1012.8
20260509082241 54 140 0.9 0.9 0.00 0.00 0.00 56 1012.8